Location: Unspecified
(41.5000°N, 0.0000°E)
Time: 08:42:53
(UTC+00:00)

deb Explorer IX - Pass Details

Date: 24 June 2019
Orbit: 539 x 1112 km, 38.8° (Epoch: 17 July)

Event Time Altitude Azimuth Distance (km) Brightness Sun altitude
Rises 17:54:59 0° 279° (W) 3,935 ? 16.6°
Reaches altitude 10° 17:58:02 10° 272° (W) 2,966 ? 16.1°
Maximum altitude 18:04:32 35° 209° (SSW) 1,638 ? 14.9°
Drops below altitude 10° 18:10:36 10° 146° (SE) 2,752 ? 13.8°
Sets 18:13:20 0° 138° (SE) 3,618 ? 13.3°
